DeLand, FL

12:19 PM EST on February 12, 2016 (GMT -0500)
De Land Municipal-Taylor

Weather History for KDED - April, 2014

Change the Weather History Date:

Tuesday, April 15, 2014

  Actual Average Record
Temperature  
Mean Temperature 74 °F -  
Max Temperature 82 °F 81 °F 89 °F (2015)
Min Temperature 66 °F 58 °F 64 °F (2013)
Cooling Degree Days 9    
Growing Degree Days 24 (Base 50)    
Moisture  
Dew Point 66 °F    
Average Humidity 83    
Maximum Humidity 100    
Minimum Humidity 58    
Precipitation  
Precipitation 0.12 in - - ()
Sea Level Pressure  
Sea Level Pressure 29.88 in    
Wind  
Wind Speed 5 mph (SSW)    
Max Wind Speed 21 mph    
Max Gust Speed 47 mph    
Visibility 10 miles    
Events      
Averages and records for this station are not official NWS values.
T = Trace of Precipitation, MM = Missing Value Source: NWS Daily Summary

Daily Weather History Graph

Daily Weather History Graph

Search for Another Location

Airport or City:

Trip Planner

Search our weather history database for the weather conditions in past years. The results will help you decide how hot, cold, wet, or windy it might be!

Date:

Astronomy

Apr. 15, 2014 Rise Set
Actual Time 6:59 AM EDT 7:51 PM EDT
Civil Twilight 6:34 AM EDT 8:15 PM EDT
Nautical Twilight 6:06 AM EDT 8:44 PM EDT
Astronomical Twilight 5:36 AM EDT 9:13 PM EDT
Moon 8:27 PM EDT (4/15) 7:07 AM EDT (4/15)
Length of Visible Light 13h 40m
Length of Day
12h 52m
Full, 100% of the Moon is Illuminated
Apr 15
Full
Apr 22
Last Quarter
Apr 29
New
May 6
First Quarter
May 14
Full

Hourly Weather History & Observations

Time (EDT) Temp. Heat Index Dew Point Humidity Pressure Visibility Wind Dir Wind Speed Gust Speed Precip Events Conditions
12:15 AM 68.0 °F - 64.4 °F 88% 29.91 in 10.0 mi Calm Calm - N/A   Clear
12:35 AM 68.0 °F - 64.4 °F 88% 29.91 in 10.0 mi Calm Calm - N/A   Clear
1:15 AM 68.0 °F - 66.2 °F 94% 29.91 in 10.0 mi Calm Calm - N/A   Clear
1:35 AM 68.0 °F - 64.4 °F 88% 29.91 in 10.0 mi Calm Calm - N/A   Clear
1:55 AM 68.0 °F - 64.4 °F 88% 29.91 in 10.0 mi Calm Calm - N/A   Clear
2:15 AM 66.2 °F - 62.6 °F 88% 29.91 in 10.0 mi Calm Calm - N/A   Clear
2:35 AM 66.2 °F - 64.4 °F 94% 29.91 in 10.0 mi Calm Calm - N/A   Partly Cloudy
2:55 AM 66.2 °F - 64.4 °F 94% 29.91 in 10.0 mi Calm Calm - N/A   Partly Cloudy
3:15 AM 66.2 °F - 66.2 °F 100% 29.90 in 10.0 mi Calm Calm - N/A   Clear
3:35 AM 66.2 °F - 66.2 °F 100% 29.90 in 9.0 mi Calm Calm - N/A   Clear
3:55 AM 68.0 °F - 66.2 °F 94% 29.89 in 7.0 mi Calm Calm - N/A   Clear
4:55 AM 68.0 °F - 66.2 °F 94% 29.88 in 10.0 mi SE 4.6 mph - N/A   Clear
5:15 AM 68.0 °F - 66.2 °F 94% 29.88 in 10.0 mi South 3.5 mph - N/A   Clear
5:35 AM 68.0 °F - 66.2 °F 94% 29.88 in 10.0 mi SSE 4.6 mph - N/A   Clear
5:55 AM 68.0 °F - 64.4 °F 88% 29.88 in 10.0 mi Calm Calm - N/A   Clear
6:15 AM 66.2 °F - 64.4 °F 94% 29.88 in 10.0 mi SSE 4.6 mph - N/A   Clear
6:35 AM 68.0 °F - 64.4 °F 88% 29.87 in 10.0 mi SSE 5.8 mph - N/A   Clear
6:55 AM 68.0 °F - 64.4 °F 88% 29.87 in 10.0 mi South 5.8 mph - N/A   Clear
7:15 AM 68.0 °F - 64.4 °F 88% 29.88 in 10.0 mi South 4.6 mph - N/A   Clear
7:35 AM 68.0 °F - 64.4 °F 88% 29.88 in 10.0 mi SSE 5.8 mph - N/A   Clear
7:55 AM 68.0 °F - 64.4 °F 88% 29.88 in 10.0 mi SSE 8.1 mph - N/A   Unknown
8:15 AM 71.6 °F - 64.4 °F 78% 29.88 in 10.0 mi South 9.2 mph - N/A   Clear
8:35 AM 71.6 °F - 66.2 °F 83% 29.88 in 10.0 mi South 11.5 mph - N/A   Clear
8:55 AM 73.4 °F - 68.0 °F 83% 29.87 in 10.0 mi South 10.4 mph 18.4 mph N/A   Clear
9:15 AM 75.2 °F - 68.0 °F 78% 29.88 in 10.0 mi South 13.8 mph 23.0 mph N/A   Clear
9:55 AM 80.6 °F 83.2 °F 68.0 °F 65% 29.88 in 10.0 mi South 18.4 mph 25.3 mph N/A   Clear
10:35 AM 82.4 °F 84.6 °F 66.2 °F 58% 29.87 in 10.0 mi South 13.8 mph - N/A   Clear
10:55 AM 82.4 °F 85.4 °F 68.0 °F 62% 29.87 in 10.0 mi South 13.8 mph 19.6 mph N/A   Clear
11:15 AM 82.4 °F 84.6 °F 66.2 °F 58% 29.86 in 10.0 mi South 20.7 mph 29.9 mph N/A   Clear
11:35 AM 82.4 °F 84.6 °F 66.2 °F 58% 29.84 in 10.0 mi SSW 19.6 mph 25.3 mph N/A   Clear
12:55 PM 82.4 °F 84.6 °F 66.2 °F 58% 29.86 in 10.0 mi SSW 11.5 mph 21.9 mph N/A   Clear
1:35 PM 71.6 °F - 66.2 °F 83% 29.92 in 0.2 mi West 16.1 mph 47.2 mph 0.12 in   Overcast
5:35 PM 75.2 °F - 71.6 °F 89% 29.81 in 10.0 mi SW 9.2 mph - N/A   Mostly Cloudy
6:55 PM 77.0 °F - 68.0 °F 74% 29.81 in 10.0 mi WSW 12.7 mph 20.7 mph N/A   Scattered Clouds
7:15 PM 75.2 °F - 68.0 °F 78% 29.82 in 10.0 mi WSW 11.5 mph 19.6 mph N/A   Mostly Cloudy
7:35 PM 75.2 °F - 68.0 °F 78% 29.83 in 9.0 mi West 15.0 mph 21.9 mph N/A   Mostly Cloudy
7:55 PM 73.4 °F - 68.0 °F 83% 29.85 in 10.0 mi West 12.7 mph - N/A   Overcast
8:35 PM 71.6 °F - 66.2 °F 83% 29.87 in 10.0 mi WSW 6.9 mph - N/A   Mostly Cloudy
8:55 PM 71.6 °F - 66.2 °F 83% 29.89 in 10.0 mi WSW 6.9 mph - N/A   Mostly Cloudy
9:15 PM 71.6 °F - 66.2 °F 83% 29.90 in 10.0 mi West 8.1 mph - N/A   Overcast
9:35 PM 71.6 °F - 64.4 °F 78% 29.92 in 10.0 mi NW 8.1 mph - N/A   Overcast